Henderson, KY

9:11 AM CDT on July 24, 2017 (GMT -0500)
Henderson City-County

Weather History for KEHR - October, 2013

Change the Weather History Date:

Thursday, October 31, 2013

  Actual Average Record
Temperature  
Mean Temperature 63 °F -  
Max Temperature 69 °F 68 °F 85 °F (1933)
Min Temperature 57 °F 47 °F 27 °F (1988)
Degree Days  
Heating Degree Days 2    
Growing Degree Days 13 (Base 50)    
Moisture  
Dew Point 58 °F    
Average Humidity 82    
Maximum Humidity 88    
Minimum Humidity 68    
Precipitation  
Precipitation 0.47 in - - ()
Sea Level Pressure  
Sea Level Pressure 29.67 in    
Wind  
Wind Speed 14 mph (SSW)    
Max Wind Speed 32 mph    
Max Gust Speed 54 mph    
Visibility 10 miles    
Events      
Averages and records for this station are not official NWS values.
T = Trace of Precipitation, MM = Missing Value Source: NWS Daily Summary

Daily Weather History Graph

Daily Weather History Graph

Search for Another Location

Airport or City:

Trip Planner

Search our weather history database for the weather conditions in past years. The results will help you decide how hot, cold, wet, or windy it might be!

Date:

Astronomy

Oct. 31, 2013 Rise Set
Actual Time 7:15 AM CDT 5:52 PM CDT
Civil Twilight 6:48 AM CDT 6:19 PM CDT
Nautical Twilight 6:17 AM CDT 6:50 PM CDT
Astronomical Twilight 5:46 AM CDT 7:21 PM CDT
Moon 4:07 AM CDT (10/31) 4:08 PM CDT (10/31)
Length of Visible Light 11h 31m
Length of Day
10h 37m
Waning Crescent, 10% of the Moon is Illuminated
Oct 31
Waning Crescent
Nov 3
New
Nov 9
First Quarter
Nov 17
Full
Nov 25
Last Quarter

Hourly Weather History & Observations

Time (CDT) Temp. Dew Point Humidity Pressure Visibility Wind Dir Wind Speed Gust Speed Precip Events Conditions
12:15 AM 66.2 °F 55.4 °F 68% 29.96 in 10.0 mi South 10.4 mph - N/A   Overcast
12:35 AM 66.2 °F 55.4 °F 68% 29.96 in 10.0 mi SSW 11.5 mph - N/A   Overcast
12:55 AM 66.2 °F 55.4 °F 68% 29.94 in 10.0 mi South 11.5 mph 16.1 mph N/A   Mostly Cloudy
1:15 AM 66.2 °F 55.4 °F 68% 29.93 in 10.0 mi South 12.7 mph 19.6 mph N/A   Scattered Clouds
1:35 AM 66.2 °F 55.4 °F 68% 29.93 in 10.0 mi South 12.7 mph 19.6 mph N/A   Overcast
1:55 AM 66.2 °F 55.4 °F 68% 29.92 in 10.0 mi South 12.7 mph 18.4 mph N/A   Overcast
2:15 AM 66.2 °F 55.4 °F 68% 29.92 in 10.0 mi South 15.0 mph - N/A   Overcast
2:35 AM 66.2 °F 57.2 °F 73% 29.92 in 10.0 mi South 12.7 mph - N/A   Overcast
2:55 AM 64.4 °F 57.2 °F 77% 29.92 in 10.0 mi South 11.5 mph 16.1 mph N/A   Overcast
3:15 AM 64.4 °F 57.2 °F 77% 29.91 in 10.0 mi South 10.4 mph - N/A   Overcast
3:35 AM 64.4 °F 57.2 °F 77% 29.90 in 10.0 mi South 10.4 mph - N/A   Overcast
3:55 AM 62.6 °F 57.2 °F 82% 29.88 in 10.0 mi South 11.5 mph - 0.01 in   Overcast
4:15 AM 62.6 °F 57.2 °F 82% 29.86 in 10.0 mi SSE 11.5 mph - 0.01 in   Mostly Cloudy
4:35 AM 62.6 °F 57.2 °F 82% 29.86 in 10.0 mi South 13.8 mph - 0.02 in   Mostly Cloudy
4:55 AM 62.6 °F 57.2 °F 82% 29.86 in 10.0 mi South 12.7 mph - 0.02 in   Overcast
5:15 AM 62.6 °F 57.2 °F 82% 29.86 in 10.0 mi SSW 12.7 mph 18.4 mph N/A   Overcast
5:35 AM 64.4 °F 57.2 °F 77% 29.85 in 10.0 mi South 16.1 mph 21.9 mph N/A   Overcast
5:55 AM 64.4 °F 57.2 °F 77% 29.84 in 10.0 mi South 15.0 mph 20.7 mph N/A   Overcast
6:15 AM 64.4 °F 57.2 °F 77% 29.83 in 10.0 mi South 19.6 mph 26.5 mph N/A   Overcast
6:35 AM 64.4 °F 57.2 °F 77% 29.82 in 10.0 mi South 17.3 mph 24.2 mph N/A   Overcast
6:55 AM 62.6 °F 57.2 °F 82% 29.82 in 10.0 mi South 11.5 mph 21.9 mph N/A   Overcast
7:15 AM 62.6 °F 57.2 °F 82% 29.80 in 10.0 mi South 12.7 mph - N/A   Overcast
7:35 AM 62.6 °F 57.2 °F 82% 29.80 in 10.0 mi South 13.8 mph 21.9 mph N/A   Overcast
7:55 AM 62.6 °F 57.2 °F 82% 29.79 in 10.0 mi South 13.8 mph 20.7 mph N/A   Overcast
8:15 AM 62.6 °F 55.4 °F 77% 29.79 in 8.0 mi South 17.3 mph 24.2 mph 0.01 in   Overcast
8:35 AM 60.8 °F 55.4 °F 82% 29.78 in 9.0 mi South 15.0 mph 23.0 mph 0.03 in   Overcast
8:55 AM 60.8 °F 55.4 °F 82% 29.77 in 8.0 mi South 12.7 mph 21.9 mph 0.06 in   Overcast
9:15 AM 60.8 °F 55.4 °F 82% 29.76 in 9.0 mi South 13.8 mph - N/A   Overcast
9:35 AM 60.8 °F 55.4 °F 82% 29.73 in 7.0 mi SSE 13.8 mph 18.4 mph 0.06 in   Overcast
9:55 AM 60.8 °F 55.4 °F 82% 29.70 in 10.0 mi SSE 11.5 mph 17.3 mph 0.12 in   Overcast
10:15 AM 60.8 °F 57.2 °F 88% 29.68 in 8.0 mi SSE 18.4 mph 27.6 mph N/A   Overcast
10:35 AM 60.8 °F 57.2 °F 88% 29.66 in 10.0 mi South 18.4 mph 28.8 mph 0.01 in   Overcast
10:55 AM 62.6 °F 57.2 °F 82% 29.64 in 10.0 mi South 20.7 mph 36.8 mph 0.01 in   Overcast
11:15 AM 62.6 °F 57.2 °F 82% 29.63 in 10.0 mi South 19.6 mph 31.1 mph N/A   Overcast
11:35 AM 64.4 °F 59.0 °F 83% 29.63 in 10.0 mi South 20.7 mph 28.8 mph N/A   Overcast
11:55 AM 64.4 °F 60.8 °F 88% 29.62 in 10.0 mi South 18.4 mph 26.5 mph 0.01 in   Overcast
12:15 PM 64.4 °F 60.8 °F 88% 29.61 in 10.0 mi South 21.9 mph 26.5 mph N/A   Overcast
12:35 PM 64.4 °F 60.8 °F 88% 29.60 in 8.0 mi South 17.3 mph 29.9 mph 0.02 in   Overcast
12:55 PM 66.2 °F 62.6 °F 88% 29.57 in 9.0 mi South 25.3 mph 33.4 mph 0.03 in   Overcast
1:15 PM 66.2 °F 62.6 °F 88% 29.56 in 10.0 mi South 18.4 mph 27.6 mph 0.02 in   Overcast
1:35 PM 66.2 °F 62.6 °F 88% 29.54 in 10.0 mi South 16.1 mph 28.8 mph 0.03 in   Overcast
1:55 PM 66.2 °F 62.6 °F 88% 29.54 in 10.0 mi SSW 20.7 mph 26.5 mph 0.05 in   Overcast
2:15 PM 66.2 °F 62.6 °F 88% 29.53 in 8.0 mi SSW 19.6 mph 29.9 mph N/A   Overcast
2:35 PM 66.2 °F 62.6 °F 88% 29.52 in 10.0 mi SSW 17.3 mph 24.2 mph N/A   Overcast
2:55 PM 68.0 °F 62.6 °F 83% 29.50 in 10.0 mi South 20.7 mph 28.8 mph N/A   Overcast
3:15 PM 68.0 °F 62.6 °F 83% 29.50 in 10.0 mi SSW 15.0 mph 29.9 mph N/A   Overcast
3:35 PM 68.0 °F 62.6 °F 83% 29.50 in 10.0 mi SSW 19.6 mph 26.5 mph N/A   Overcast
3:55 PM 68.0 °F 62.6 °F 83% 29.48 in 10.0 mi SSW 19.6 mph 25.3 mph N/A   Overcast
4:15 PM 69.8 °F 62.6 °F 78% 29.48 in 10.0 mi SSW 16.1 mph 24.2 mph N/A   Overcast
4:35 PM 69.8 °F 62.6 °F 78% 29.46 in 10.0 mi SSW 16.1 mph 21.9 mph N/A   Overcast
4:55 PM 68.0 °F 62.6 °F 83% 29.46 in 10.0 mi SSW 15.0 mph 23.0 mph N/A   Overcast
5:15 PM 69.8 °F 62.6 °F 78% 29.45 in 10.0 mi SSW 17.3 mph 27.6 mph N/A   Overcast
5:35 PM 68.0 °F 62.6 °F 83% 29.45 in 10.0 mi SSW 18.4 mph 25.3 mph N/A   Overcast
5:55 PM 68.0 °F 62.6 °F 83% 29.46 in 10.0 mi SSW 20.7 mph 25.3 mph N/A   Overcast
6:15 PM 68.0 °F 62.6 °F 83% 29.46 in 8.0 mi SSW 16.1 mph 27.6 mph N/A   Mostly Cloudy
6:35 PM 68.0 °F 62.6 °F 83% 29.45 in 10.0 mi SSW 15.0 mph 20.7 mph N/A   Mostly Cloudy
6:55 PM 68.0 °F 62.6 °F 83% 29.44 in 10.0 mi SSW 17.3 mph 24.2 mph N/A   Overcast
7:15 PM 68.0 °F 62.6 °F 83% 29.45 in 10.0 mi SSW 18.4 mph 23.0 mph N/A   Overcast
7:35 PM 68.0 °F 62.6 °F 83% 29.46 in 7.0 mi SW 19.6 mph 26.5 mph 0.02 in   Overcast
7:55 PM 66.2 °F 62.6 °F 88% 29.45 in 10.0 mi SSW 16.1 mph 24.2 mph 0.02 in   Mostly Cloudy
8:15 PM 66.2 °F 62.6 °F 88% 29.46 in 10.0 mi SW 18.4 mph 27.6 mph N/A   Overcast
8:35 PM 66.2 °F 62.6 °F 88% 29.48 in 10.0 mi WSW 19.6 mph 29.9 mph N/A   Overcast
8:55 PM 66.2 °F 60.8 °F 83% 29.54 in 7.0 mi West 32.2 mph 54.1 mph N/A   Overcast
9:15 PM 57.2 °F 53.6 °F 88% 29.55 in 7.0 mi West 18.4 mph 32.2 mph 0.09 in   Overcast
9:35 PM 57.2 °F 53.6 °F 88% 29.53 in 10.0 mi West 5.8 mph - 0.10 in   Mostly Cloudy
9:55 PM 57.2 °F 53.6 °F 88% 29.55 in 10.0 mi West 8.1 mph - 0.11 in   Overcast
10:15 PM 57.2 °F 53.6 °F 88% 29.53 in 10.0 mi SSW 8.1 mph - 0.03 in   Overcast
10:35 PM 57.2 °F 53.6 °F 88% 29.55 in 10.0 mi WSW 10.4 mph - 0.03 in   Mostly Cloudy
10:55 PM 57.2 °F 53.6 °F 88% 29.57 in 10.0 mi WSW 10.4 mph 18.4 mph 0.03 in   Mostly Cloudy
11:15 PM 57.2 °F 53.6 °F 88% 29.60 in 10.0 mi WSW 15.0 mph 19.6 mph N/A   Overcast
11:35 PM 57.2 °F 53.6 °F 88% 29.62 in 10.0 mi West 13.8 mph 23.0 mph N/A   Overcast
11:55 PM 57.2 °F 51.8 °F 82% 29.63 in 10.0 mi West 21.9 mph 27.6 mph N/A   Overcast